Tracking 18793 objects as of 26-September-2017
HD Live streaming from Space Station
objects crossing your sky now

GB 2

Track GB 2 now!
10-day predictions
GB 2 is classified as:


NORAD ID: 14144
Int'l Code: 1983-056D
Perigee: 407.2 km
Apogee: 1,765.9 km
Inclination: 63.3 °
Period: 106.8 minutes
Semi major axis: 7457 km
RCS: Unknown
Launch date: June 9, 1983
Source: United States (US)
Launch site: AIR FORCE WESTERN TEST RANGE (AFWTR)
aabbcc
Your satellite tracking list
Your tracking list is empty





NASA's NSSDC Master Catalog

Two Line Element Set (TLE):
1 14144U 83056D   17049.14571434 0.00001000  00000-0  95341-4 0    06
2 14144  63.3070  54.3960 0910932  91.9537 268.0463 13.48050074    01
Source of the keplerian elements: McCants